GW0795 Weather Reports


Display with metric or nautical units.
time (UTC)temp
F
wind
direction
speed
MPH
gust
MPH
rain 1hr
in
rain 24hr
in
rain mn
in
humidity
%
barometer
mb
20260904003026 65 284 1.0 9.0 0.00 0.13 0.10 63 1009.9
20260904002516 66 88 2.0 8.0 0.00 0.13 0.10 62 1009.9
20260904002017 66 236 2.0 8.0 0.00 0.14 0.10 61 1009.9
20260904001530 66 28 1.0 7.0 0.00 0.16 0.10 59 1010.0
20260904001017 66 234 1.0 3.0 0.00 0.18 0.10 58 1009.9
20260904000518 66 205 1.0 4.0 0.00 0.18 0.10 57 1009.9
20260904000040 66 200 1.0 4.0 0.00 0.18 0.10 58 1009.8
20260903235517 66 271 1.0 3.0 0.00 0.18 0.10 55 1009.7
20260903235010 66 259 1.0 4.0 0.00 0.18 0.10 56 1009.7
20260903234526 67 5 2.0 4.0 0.00 0.18 0.10 55 1009.7
20260903234009 67 273 1.0 5.0 0.00 0.18 0.10 56 1009.7
20260903233509 66 261 2.0 5.0 0.00 0.18 0.10 55 1009.7
20260903233024 67 192 2.0 7.0 0.00 0.18 0.10 54 1009.7
20260903232515 66 278 3.0 7.0 0.00 0.18 0.10 56 1009.7
20260903232016 66 311 3.0 7.0 0.00 0.18 0.10 55 1009.7
20260903231527 66 11 2.0 6.0 0.00 0.18 0.10 55 1009.7
20260903231016 66 245 2.0 7.0 0.00 0.18 0.10 56 1009.7
20260903230515 66 337 3.0 7.0 0.00 0.19 0.10 57 1009.7
20260903230040 66 264 3.0 7.0 0.00 0.19 0.10 57 1009.7
20260903225519 66 311 4.0 7.0 0.00 0.20 0.10 55 1009.8
20260903225019 66 13 3.0 5.0 0.00 0.20 0.10 57 1009.8
20260903224532 65 260 2.0 5.0 0.00 0.21 0.10 58 1009.9
20260903224019 65 360 2.0 6.0 0.00 0.22 0.10 58 1009.9
20260903223510 64 325 2.0 6.0 0.00 0.23 0.10 60 1009.9
20260903223019 64 319 1.0 4.0 0.00 0.23 0.10 58 1010.0
20260903222512 64 277 1.0 4.0 0.00 0.24 0.10 61 1010.0
20260903222014 64 280 2.0 5.0 0.00 0.24 0.10 60 1010.0
20260903221527 65 266 2.0 7.0 0.00 0.24 0.10 60 1010.1
20260903221014 64 313 3.0 7.0 0.00 0.25 0.10 62 1010.0
20260903220516 64 288 2.0 6.0 0.00 0.25 0.10 62 1010.0
20260903220028 64 313 2.0 6.0 0.00 0.26 0.10 62 1010.1
20260903215519 64 304 0.0 4.0 0.00 0.26 0.10 62 1010.1
20260903215018 64 270 2.0 4.0 0.00 0.27 0.10 65 1010.1
20260903214535 63 280 1.0 6.0 0.00 0.27 0.10 66 1010.0
20260903214019 63 295 3.0 6.0 0.00 0.28 0.10 66 1010.1
20260903213518 63 286 2.0 6.0 0.00 0.28 0.10 66 1010.2
20260903213037 63 261 2.0 6.0 0.00 0.29 0.10 67 1010.1
20260903212501 63 283 1.0 3.0 0.00 0.30 0.10 67 1010.1
20260903212002 62 287 2.0 7.0 0.00 0.30 0.10 68 1010.1
20260903211501 63 290 1.0 7.0 0.00 0.30 0.10 68 1010.1
20260903211001 63 263 1.0 4.0 0.00 0.31 0.10 67 1010.0
20260903210505 63 247 1.0 4.0 0.00 0.31 0.10 65 1010.0
20260903210006 64 211 0.0 3.0 0.00 0.31 0.10 69 1010.0
20260903205505 63 309 0.0 7.0 0.00 0.31 0.10 67 1010.0
20260903205005 63 191 2.0 7.0 0.00 0.32 0.10 66 1009.9
20260903204510 63 220 1.0 4.0 0.00 0.32 0.10 68 1009.9
20260903204009 63 280 0.0 4.0 0.00 0.32 0.10 68 1009.9
20260903203507 64 309 2.0 4.0 0.00 0.32 0.10 69 1009.9
20260903203024 63 213 2.0 6.0 0.00 0.32 0.10 68 1009.9
20260903202508 63 294 1.0 6.0 0.00 0.32 0.10 68 1009.9
20260903202002 63 279 2.0 4.0 0.00 0.32 0.10 68 1009.9
20260903201501 62 271 2.0 4.0 0.00 0.32 0.10 68 1009.9
20260903201001 62 304 1.0 4.0 0.00 0.32 0.10 67 1009.9
20260903200502 62 184 1.0 2.0 0.00 0.32 0.10 70 1009.9
20260903200004 62 242 0.0 2.0 0.00 0.32 0.10 70 1010.0
20260903195501 62 138 0.0 5.0 0.00 0.32 0.10 71 1010.0
20260903195005 61 141 1.0 5.0 0.00 0.32 0.10 72 1010.0
20260903194505 61 165 1.0 5.0 0.00 0.32 0.10 71 1010.0
20260903194010 61 145 0.0 6.0 0.00 0.32 0.10 73 1010.0
20260903193509 61 207 2.0 6.0 0.00 0.32 0.10 71 1009.9
20260903193017 61 217 1.0 2.0 0.00 0.32 0.10 72 1010.0
20260903192507 61 237 0.0 5.0 0.00 0.33 0.10 71 1009.9
20260903192008 61 184 1.0 7.0 0.00 0.33 0.10 70 1009.9
20260903191510 62 209 2.0 7.0 0.00 0.33 0.10 69 1009.9
20260903191006 63 200 0.0 5.0 0.00 0.33 0.10 68 1009.9
20260903190502 62 220 2.0 5.0 0.00 0.33 0.10 71 1010.0
20260903190002 61 170 2.0 4.0 0.00 0.33 0.10 72 1010.0
20260903185502 60 190 1.0 4.0 0.00 0.33 0.10 74 1010.0
20260903185001 60 191 1.0 4.0 0.00 0.33 0.10 74 1010.0
20260903184506 60 208 0.0 2.0 0.00 0.33 0.10 73 1010.0
20260903184008 61 336 0.0 2.0 0.00 0.33 0.10 71 1009.9
20260903183506 60 188 0.0 6.0 0.00 0.33 0.10 72 1009.9
20260903183010 61 197 2.0 6.0 0.00 0.33 0.10 71 1009.8
20260903182507 61 223 0.0 5.0 0.00 0.33 0.10 75 1009.8
20260903182009 60 252 1.0 5.0 0.00 0.33 0.10 74 1009.8
20260903181515 60 181 1.0 5.0 0.00 0.33 0.10 76 1009.8
20260903181008 60 233 1.0 5.0 0.00 0.33 0.10 77 1009.8
20260903180513 60 184 0.0 4.0 0.00 0.33 0.10 76 1009.9
20260903180021 59 171 2.0 4.0 0.00 0.33 0.10 74 1009.9
20260903175507 59 207 0.0 7.0 0.00 0.33 0.10 77 1009.8
20260903175003 59 176 3.0 6.0 0.00 0.33 0.10 76 1009.8
20260903174505 59 195 2.0 4.0 0.00 0.33 0.10 75 1009.7
20260903174004 59 216 1.0 4.0 0.00 0.33 0.10 77 1009.7
20260903173504 59 121 1.0 5.0 0.00 0.33 0.10 77 1009.7
20260903173008 59 198 2.0 9.0 0.00 0.33 0.10 77 1009.6
20260903172508 59 169 3.0 9.0 0.00 0.33 0.10 76 1009.6
20260903172007 59 117 2.0 9.0 0.00 0.33 0.10 77 1009.5
20260903171512 59 200 3.0 8.0 0.00 0.33 0.10 79 1009.5
20260903171008 59 152 1.0 4.0 0.00 0.33 0.10 80 1009.5
20260903170510 58 225 2.0 4.0 0.00 0.33 0.10 80 1009.5
20260903170018 57 101 1.0 5.0 0.00 0.33 0.10 83 1009.5
20260903165512 57 172 2.0 5.0 0.00 0.33 0.10 82 1009.5
20260903165012 56 156 0.0 4.0 0.00 0.33 0.10 84 1009.5
20260903164517 56 196 2.0 7.0 0.00 0.33 0.10 84 1009.5
20260903164011 56 90 1.0 9.0 0.00 0.33 0.10 84 1009.5
20260903163503 56 97 5.0 9.0 0.00 0.33 0.10 84 1009.5
20260903163007 56 115 2.0 6.0 0.00 0.33 0.10 84 1009.5
20260903162508 57 83 0.0 4.0 0.00 0.33 0.10 86 1009.5
20260903162006 56 110 2.0 3.0 0.00 0.33 0.10 84 1009.5
20260903161512 56 140 0.0 7.0 0.00 0.33 0.10 86 1009.5
20260903161013 56 127 1.0 7.0 0.00 0.33 0.10 85 1009.4
20260903160509 56 79 2.0 3.0 0.00 0.33 0.10 84 1009.4
20260903160028 56 101 1.0 4.0 0.00 0.33 0.10 84 1009.4
20260903155515 56 86 1.0 4.0 0.00 0.33 0.10 85 1009.5
20260903155010 56 200 1.0 4.0 0.00 0.33 0.10 85 1009.6
20260903154524 56 134 1.0 6.0 0.00 0.33 0.10 86 1009.5
20260903154012 56 196 2.0 6.0 0.00 0.33 0.10 85 1009.5
20260903153514 56 171 1.0 5.0 0.00 0.33 0.10 85 1009.5
20260903153020 56 179 0.0 2.0 0.00 0.33 0.10 87 1009.5
20260903152514 56 99 1.0 4.0 0.00 0.33 0.10 87 1009.3
20260903152007 55 142 0.0 4.0 0.00 0.33 0.10 87 1009.3
20260903151508 55 158 0.0 2.0 0.00 0.33 0.10 89 1009.3
20260903151008 55 134 0.0 2.0 0.01 0.33 0.10 89 1009.3
20260903150507 54 87 1.0 2.0 0.01 0.33 0.10 90 1009.3
20260903150023 54 110 1.0 2.0 0.01 0.33 0.10 90 1009.3
20260903145512 53 96 0.0 2.0 0.01 0.33 0.10 91 1009.3
20260903145016 53 96 0.0 2.0 0.01 0.33 0.10 91 1009.2
20260903144540 53 42 0.0 2.0 0.01 0.33 0.10 91 1009.1
20260903144013 53 67 0.0 2.0 0.01 0.33 0.10 91 1009.1
20260903143514 53 108 0.0 2.0 0.01 0.33 0.10 91 1009.1
20260903143039 53 108 0.0 2.0 0.02 0.33 0.10 91 1009.0
20260903142514 53 108 0.0 2.0 0.02 0.33 0.10 90 1009.0
20260903142015 53 108 0.0 2.0 0.02 0.33 0.10 91 1009.0
20260903141526 53 115 0.0 4.0 0.02 0.33 0.10 90 1008.9
20260903141020 53 115 1.0 4.0 0.01 0.32 0.09 90 1008.9
20260903140505 53 103 0.0 3.0 0.02 0.32 0.09 91 1008.9
20260903140015 52 103 0.0 3.0 0.02 0.32 0.09 91 1009.1
20260903135510 52 115 0.0 0.0 0.03 0.32 0.09 91 1009.1
20260903135008 52 115 0.0 0.0 0.03 0.32 0.09 91 1008.9
20260903134515 52 115 0.0 0.0 0.04 0.32 0.09 91 1009.0
20260903134011 52 96 0.0 0.0 0.04 0.32 0.09 91 1008.9
20260903133514 52 96 0.0 0.0 0.04 0.32 0.09 91 1008.8
20260903133027 52 96 0.0 0.0 0.03 0.31 0.08 91 1008.8
20260903132513 52 96 0.0 0.0 0.03 0.31 0.08 91 1008.8
20260903132016 52 96 0.0 0.0 0.04 0.31 0.08 91 1008.8
20260903131528 52 96 0.0 2.0 0.05 0.31 0.08 91 1008.7
20260903131014 52 96 0.0 2.0 0.06 0.31 0.08 91 1008.7
20260903130514 52 96 1.0 2.0 0.05 0.30 0.07 90 1008.7
20260903130028 52 88 1.0 2.0 0.07 0.30 0.07 90 1008.7
20260903125516 52 93 0.0 1.0 0.06 0.29 0.06 90 1008.7
20260903125014 52 93 0.0 1.0 0.06 0.29 0.06 90 1008.7
20260903124513 52 103 0.0 2.0 0.05 0.28 0.05 90 1008.6
20260903124010 52 86 0.0 2.0 0.05 0.28 0.05 90 1008.7
20260903123511 52 162 0.0 0.0 0.05 0.28 0.05 89 1008.7
20260903123024 52 162 0.0 0.0 0.05 0.28 0.05 89 1008.7
20260903122504 52 163 0.0 0.0 0.05 0.28 0.05 89 1008.7
20260903122002 52 206 0.0 0.0 0.04 0.27 0.04 88 1008.8
20260903121514 53 206 0.0 0.0 0.03 0.26 0.03 87 1008.6
20260903121005 53 206 0.0 5.0 0.02 0.25 0.02 86 1008.7
20260903120506 53 188 0.0 5.0 0.02 0.25 0.02 84 1008.6
20260903120019 53 198 0.0 3.0 0.00 0.23 0.00 83 1008.7
20260903115504 54 198 0.0 3.0 0.00 0.23 0.00 82 1008.4
20260903115009 54 127 0.0 2.0 0.00 0.23 0.00 82 1008.3
20260903114513 54 80 0.0 2.0 0.00 0.23 0.00 82 1008.2
20260903114009 54 111 0.0 2.0 0.00 0.23 0.00 82 1008.1
20260903113510 54 115 0.0 2.0 0.00 0.23 0.00 82 1008.1
20260903113022 54 108 1.0 4.0 0.00 0.23 0.00 82 1008.0
20260903112514 54 91 1.0 4.0 0.00 0.23 0.00 81 1008.0
20260903112015 54 88 1.0 5.0 0.00 0.23 0.00 82 1008.0
20260903111508 54 127 2.0 6.0 0.00 0.23 0.00 82 1008.0
20260903111003 54 105 2.0 6.0 0.00 0.23 0.00 81 1008.0
20260903110504 54 94 2.0 4.0 0.00 0.23 0.00 81 1007.9
20260903110005 54 73 1.0 3.0 0.00 0.23 0.00 82 1008.0
20260903105504 54 86 0.0 2.0 0.00 0.23 0.00 82 1007.9
20260903105006 54 101 0.0 2.0 0.00 0.23 0.00 83 1007.9
20260903104509 54 84 1.0 3.0 0.00 0.23 0.00 82 1007.9
20260903104006 54 78 1.0 3.0 0.00 0.23 0.00 82 1007.9
20260903103508 54 101 1.0 2.0 0.00 0.23 0.00 83 1007.9
20260903103015 54 188 0.0 2.0 0.00 0.23 0.00 84 1008.0
20260903102510 54 103 0.0 2.0 0.00 0.23 0.00 84 1008.0
20260903102009 54 103 1.0 2.0 0.00 0.23 0.00 83 1008.0
20260903101526 54 100 1.0 3.0 0.00 0.23 0.00 83 1008.0
20260903101012 54 102 1.0 3.0 0.00 0.23 0.00 83 1008.0
20260903100515 54 88 0.0 3.0 0.00 0.23 0.00 83 1008.0
20260903100015 54 86 0.0 2.0 0.00 0.23 0.00 83 1008.0
20260903095501 54 90 1.0 3.0 0.00 0.23 0.00 83 1008.0
20260903095006 54 115 1.0 3.0 0.00 0.23 0.00 83 1007.9
20260903094520 54 96 1.0 3.0 0.00 0.23 0.00 84 1007.9
20260903094006 54 81 0.0 0.0 0.00 0.23 0.00 84 1008.0
20260903093507 54 81 0.0 0.0 0.00 0.23 0.00 85 1008.0
20260903093014 54 81 0.0 0.0 0.00 0.23 0.00 85 1008.0
20260903092509 54 81 0.0 0.0 0.00 0.23 0.00 85 1008.0
20260903092010 54 81 0.0 3.0 0.00 0.23 0.00 83 1008.0
20260903091525 54 81 1.0 3.0 0.00 0.23 0.00 83 1008.0
20260903091012 54 126 0.0 2.0 0.00 0.23 0.00 84 1008.0
20260903090512 54 146 0.0 2.0 0.00 0.23 0.00 83 1008.0
20260903090025 55 149 0.0 0.0 0.00 0.23 0.00 83 1007.9
20260903085515 55 86 0.0 0.0 0.00 0.23 0.00 83 1007.9
20260903085014 54 182 0.0 0.0 0.00 0.23 0.00 84 1007.9
20260903084530 54 177 0.0 0.0 0.00 0.23 0.00 84 1008.0
20260903084004 54 92 0.0 2.0 0.00 0.23 0.00 84 1007.9
20260903083510 54 93 0.0 2.0 0.00 0.23 0.00 85 1007.9
20260903083011 54 75 0.0 2.0 0.00 0.23 0.00 85 1007.9
20260903082509 54 94 0.0 2.0 0.00 0.23 0.00 85 1007.8
20260903082009 54 96 0.0 2.0 0.00 0.23 0.00 86 1007.8
20260903081516 54 89 0.0 2.0 0.00 0.23 0.00 86 1007.7
20260903081009 54 92 0.0 2.0 0.00 0.23 0.00 86 1007.8
20260903080510 54 92 0.0 2.0 0.00 0.23 0.00 85 1007.8
20260903080020 55 92 0.0 2.0 0.00 0.23 0.00 85 1007.8
20260903075512 55 105 0.0 4.0 0.00 0.23 0.00 84 1007.8
20260903075012 55 95 1.0 4.0 0.00 0.23 0.00 84 1007.9
20260903074536 55 88 1.0 3.0 0.00 0.23 0.00 84 1007.8
20260903074016 55 96 0.0 0.0 0.00 0.23 0.00 85 1007.8
20260903073517 54 99 0.0 0.0 0.00 0.23 0.00 86 1007.7
20260903073033 54 91 0.0 0.0 0.00 0.23 0.00 87 1007.7
20260903072505 53 119 0.0 0.0 0.00 0.23 0.00 88 1007.7
20260903072007 53 228 0.0 0.0 0.00 0.23 0.00 89 1007.7
20260903071515 53 228 0.0 0.0 0.00 0.23 0.00 88 1007.6
20260903071010 53 228 0.0 0.0 0.00 0.23 0.00 88 1007.6
20260903070510 53 228 0.0 0.0 0.00 0.23 0.00 88 1007.6
20260903070023 53 228 0.0 0.0 0.00 0.23 0.00 87 1007.6
20260903065512 54 228 0.0 2.0 0.00 0.23 0.23 87 1007.7
20260903065014 53 160 0.0 2.0 0.00 0.23 0.23 87 1007.6
20260903064527 53 170 0.0 2.0 0.00 0.23 0.23 87 1007.6
20260903064014 53 233 0.0 0.0 0.00 0.23 0.23 86 1007.6
20260903063514 54 233 0.0 0.0 0.00 0.23 0.23 85 1007.6
20260903063028 54 177 0.0 3.0 0.00 0.23 0.23 84 1007.6
20260903062516 55 177 0.0 5.0 0.00 0.23 0.23 84 1007.6
20260903062020 55 106 0.0 5.0 0.00 0.23 0.23 84 1007.7
20260903061532 54 165 0.0 2.0 0.00 0.23 0.23 85 1007.6
20260903061008 55 159 0.0 1.0 0.00 0.23 0.23 85 1007.7
20260903060507 55 159 0.0 3.0 0.00 0.23 0.23 84 1007.7
20260903060016 55 348 0.0 4.0 0.00 0.23 0.23 85 1007.7
20260903055512 55 159 0.0 4.0 0.00 0.23 0.23 86 1007.7
20260903055014 55 101 0.0 3.0 0.00 0.23 0.23 87 1007.7
20260903054523 54 100 0.0 3.0 0.00 0.23 0.23 87 1007.8
20260903054016 54 166 1.0 3.0 0.00 0.23 0.23 88 1007.8
20260903053513 54 271 0.0 0.0 0.00 0.23 0.23 89 1007.8
20260903053027 54 269 0.0 0.0 0.00 0.23 0.23 90 1007.8
20260903052514 54 137 0.0 0.0 0.00 0.23 0.23 91 1007.7
20260903052016 54 134 0.0 0.0 0.00 0.23 0.23 91 1007.7
20260903051551 54 134 0.0 0.0 0.00 0.23 0.23 90 1007.7
20260903051021 54 134 0.0 0.0 0.00 0.23 0.23 90 1007.7
20260903050519 54 134 0.0 0.0 0.00 0.23 0.23 90 1007.7
20260903050033 55 134 0.0 0.0 0.00 0.23 0.23 90 1007.7
20260903045508 55 98 0.0 0.0 0.00 0.23 0.23 89 1007.8
20260903045009 55 98 0.0 0.0 0.00 0.23 0.23 89 1007.8
20260903044520 55 98 0.0 0.0 0.00 0.23 0.23 89 1007.7
20260903044010 55 98 0.0 0.0 0.00 0.23 0.23 89 1007.6
20260903043503 55 98 0.0 0.0 0.00 0.23 0.23 90 1007.6
20260903043005 55 98 0.0 0.0 0.00 0.23 0.23 89 1007.6
20260903042506 55 98 0.0 0.0 0.00 0.23 0.23 89 1007.6
20260903042004 55 98 0.0 0.0 0.00 0.23 0.23 88 1007.6
20260903041516 56 319 0.0 1.0 0.00 0.23 0.23 88 1007.4
20260903041004 56 319 0.0 2.0 0.00 0.23 0.23 87 1007.4
20260903040504 56 228 0.0 2.0 0.00 0.23 0.23 87 1007.4
20260903040016 56 224 0.0 2.0 0.00 0.23 0.23 87 1007.3
20260903035509 56 186 0.0 2.0 0.00 0.23 0.23 87 1007.3
20260903035008 56 219 0.0 3.0 0.00 0.23 0.23 86 1007.2
20260903034523 57 211 1.0 7.0 0.00 0.23 0.23 85 1007.1
20260903034013 56 195 2.0 7.0 0.00 0.23 0.23 85 1007.1
20260903033510 56 184 0.0 4.0 0.00 0.23 0.23 86 1007.0
20260903033024 57 229 0.0 4.0 0.00 0.23 0.23 86 1007.0
20260903032512 56 181 1.0 5.0 0.00 0.23 0.23 87 1006.9
20260903032007 56 215 0.0 5.0 0.00 0.23 0.23 87 1006.9
20260903031504 56 159 1.0 4.0 0.00 0.23 0.23 87 1006.8
20260903031004 56 180 0.0 5.0 0.00 0.23 0.23 88 1006.7
20260903030504 56 139 2.0 5.0 0.00 0.23 0.23 88 1006.7
20260903030012 56 191 1.0 4.0 0.00 0.23 0.23 89 1006.6
20260903025507 56 92 0.0 0.0 0.00 0.23 0.23 89 1006.6
20260903025007 56 92 0.0 0.0 0.00 0.23 0.23 89 1006.6
20260903024522 56 92 0.0 0.0 0.00 0.23 0.23 89 1006.5
20260903024008 56 92 0.0 0.0 0.00 0.23 0.23 89 1006.3
20260903023510 56 92 0.0 0.0 0.00 0.23 0.23 88 1006.2
20260903023020 56 92 0.0 0.0 0.00 0.23 0.23 88 1006.3
20260903022511 56 125 0.0 2.0 0.00 0.23 0.23 88 1006.3
20260903022014 56 125 0.0 2.0 0.00 0.23 0.23 88 1006.2
20260903021524 56 198 1.0 2.0 0.00 0.23 0.23 88 1006.1
20260903021016 56 154 0.0 2.0 0.00 0.23 0.23 88 1005.9
20260903020507 56 184 0.0 4.0 0.01 0.23 0.23 88 1005.8
20260903020011 56 242 0.0 5.0 0.02 0.23 0.23 88 1005.8
20260903015504 56 234 2.0 5.0 0.02 0.23 0.23 89 1005.9
20260903015008 56 211 0.0 2.0 0.02 0.23 0.23 89 1005.8
20260903014511 56 200 1.0 4.0 0.02 0.23 0.23 89 1005.9
20260903014012 57 194 1.0 4.0 0.02 0.23 0.23 89 1005.9
20260903013518 57 175 0.0 7.0 0.03 0.23 0.23 89 1005.9
20260903013015 57 229 1.0 7.0 0.03 0.23 0.23 89 1005.7
20260903012516 57 155 2.0 8.0 0.03 0.23 0.23 89 1005.8
20260903012012 58 162 2.0 11.0 0.04 0.23 0.23 89 1005.6
20260903011526 58 221 3.0 11.0 0.06 0.23 0.23 89 1005.6
20260903011014 58 236 2.0 7.0 0.08 0.23 0.23 89 1005.5
20260903010600 58 246 1.0 7.0 0.07 0.22 0.22 89 1005.5
20260903010556 58 115 3.0 10.0 0.06 0.21 0.21 90 1005.2
20260903010551 58 172 3.0 10.0 0.06 0.21 0.21 90 1005.2
20260903010546 59 200 1.0 8.0 0.06 0.21 0.21 91 1005.2
20260903010543 58 173 2.0 9.0 0.05 0.20 0.20 91 1005.0
20260903010539 58 162 1.0 6.0 0.05 0.20 0.20 91 1005.1